Weather observations for the past three days for
Poughkeepsie, Dutchess County Airport
Imperial (Metric)
Date Time (edt) Wind (mph) Vis. (mi.) Weather Sky Cond. Temperature (ºF) Relative Humidity Wind Chill (°F) Heat Index (°F) Pressure Precipitation (in)
Air Dwpt 6 hour altimeter (in) sea level (mb) 1 hr 3 hr 6 hr
Max. Min.
25 14:53 W 12 G 21 10.00 Fair CLR 87.1 53.1 31% 85 29.86 1010.6
25 13:53 W 16 G 24 10.00 A Few Clouds FEW080 87.1 54 88 69.1 32% 85 29.85 1010.4
25 12:53 W 7 10.00 Fair CLR 86 54 33% 84 29.86 1010.8
25 11:53 Vrbl 3 10.00 Fair CLR 82.9 59 44% 83 29.89 1011.6
25 10:53 SE 3 10.00 Fair CLR 79 60.1 52% 80 29.9 1011.9
25 09:53 S 3 10.00 Fair CLR 75.9 59 56% 78 29.91 1012.3
25 08:53 SW 8 10.00 Fair CLR 73 57.9 59% 29.89 1011.9
25 07:53 Vrbl 3 10.00 Fair CLR 69.1 57 69.1 55.9 66% 29.88 1011.2
25 06:53 Calm 10.00 Fair CLR 63 57.9 84% 29.88 1011.5
25 05:53 Calm 10.00 Fair CLR 57 55 93% 29.88 1011.6
25 04:53 Calm 10.00 Fair CLR 57 55 93% 29.87 1011.0
25 03:53 Calm 10.00 Fair CLR 57.9 55.9 93% 29.85 1010.3
25 02:53 Calm 10.00 Fair CLR 57.9 55.9 93% 29.83 1009.7
25 01:53 Calm 10.00 Fair CLR 59 55.9 73 57.9 90% 29.82 1009.3
25 00:53 SE 3 10.00 Fair CLR 59 55 87% 29.8 1008.7
24 23:53 Calm 10.00 Fair CLR 63 55 76% 29.79 1008.3
24 22:53 SW 3 10.00 Fair CLR 68 53.1 59% 29.77 1007.8
24 21:53 N 9 G 22 10.00 Mostly Cloudy BKN090 BKN110 73 50 44% 29.77 1007.7
24 20:53 N 10 G 23 10.00 Partly Cloudy SCT060 72 51.1 48% 29.74 1006.7
24 19:53 N 9 G 18 10.00 Overcast OVC055 71.1 53.1 77 69.1 53% 29.72 1006.0 0.01
24 18:53 NW 9 10.00 Overcast BKN048 OVC055 70 55 59% 29.71 1005.5
24 17:53 N 14 G 25 10.00 Overcast FEW034 BKN048 OVC055 69.1 57 66% 29.68 1004.5
24 16:53 NW 20 G 31 10.00 Overcast FEW043 OVC050 71.1 55.9 59% 29.64 1003.1 0.01
24 15:53 W 12 G 21 10.00 Overcast SCT045 BKN055 OVC070 72 57.9 61% 29.62 1002.7 0.01
24 14:53 W 12 G 24 10.00 Overcast SCT046 BKN060 OVC080 75 57 54% 78 29.6 1002.0
24 13:53 W 15 G 24 10.00 Overcast BKN070 OVC080 75 55 77 73 50% 78 29.59 1001.7
24 12:53 W 16 G 23 10.00 Mostly Cloudy BKN065 75 55.9 52% 78 29.6 1001.9
24 11:53 W 14 G 24 10.00 Overcast FEW048 OVC060 73.9 55.9 54% 29.6 1001.9
24 10:53 W 10 G 20 10.00 Overcast BKN050 OVC060 73 55 53% 29.6 1001.8
24 09:53 W 14 G 22 10.00 Mostly Cloudy BKN055 75.9 55.9 50% 78 29.59 1001.7
24 08:53 W 14 G 25 10.00 Partly Cloudy SCT050 73.9 55 52% 29.6 1001.8
24 07:53 W 10 G 22 10.00 Fair CLR 73.9 55.9 79 72 54% 29.59 1001.7
24 06:53 W 7 10.00 Fair CLR 73 60.1 64% 29.58 1001.2
24 05:53 W 6 10.00 Fair CLR 72 59 64% 29.56 1000.6
24 04:53 W 12 10.00 Mostly Cloudy BKN100 73.9 61 64% 29.56 1000.4
24 03:53 W 10 10.00 A Few Clouds FEW031 77 66 69% 79 29.53 999.6
24 02:53 SW 9 5.00 Fair with Haze CLR 79 68 69% 81 29.51 998.9
24 01:53 SW 5 9.00 Mostly Cloudy BKN100 79 68 79 75 69% 81 29.52 999.1
24 00:53 SW 5 10.00 Mostly Cloudy FEW060 BKN075 BKN100 77 70 79% 79 29.52 999.3
23 23:53 SW 3 10.00 Mostly Cloudy SCT070 SCT085 BKN110 78.1 68 71% 80 29.53 999.6
23 22:53 Calm 10.00 Fair CLR 75 71.1 88% 75 29.53 999.5
23 21:53 S 3 10.00 Fair CLR 75 71.1 88% 75 29.52 999.3
23 20:53 SE 3 10.00 Fair CLR 75.9 72 88% 76 29.54 999.8
23 19:53 S 5 10.00 Fair CLR 77 73 91 77 88% 78 29.54 999.8 0.02 0.03
23 18:53 W 7 5.00 Light Rain SCT060 BKN070 BKN110 84 73 70% 90 29.55 1000.2 0.01
23 17:53 SW 8 10.00 Fair CLR 90 71.1 54% 96 29.53 999.6
23 16:53 Vrbl 7 10.00 A Few Clouds FEW050 90 72 56% 97 29.55 1000.2
23 15:53 SW 8 G 23 10.00 Mostly Cloudy BKN110 90 71.1 54% 96 29.57 1000.8
23 14:53 SW 12 G 23 10.00 A Few Clouds FEW060 90 71.1 54% 96 29.6 1001.7
23 13:53 Calm 10.00 Fair CLR 88 75 88 73.9 66% 98 29.62 1002.5
23 12:53 S 9 10.00 Fair CLR 88 73.9 63% 97 29.65 1003.7
23 11:53 S 5 10.00 Fair CLR 84 73 70% 90 29.69 1004.9
23 10:53 Vrbl 3 10.00 A Few Clouds FEW018 FEW110 81 73 77% 86 29.71 1005.7
23 09:53 Vrbl 3 9.00 Mostly Cloudy SCT013 BKN110 78.1 72 82% 80 29.74 1006.6
23 08:53 S 5 8.00 Partly Cloudy SCT110 75.9 71.1 85% 76 29.77 1007.6
23 07:53 SE 5 7.00 A Few Clouds FEW011 73.9 71.1 73.9 71.1 91% 29.78 1008.1
23 06:53 SE 3 6.00 Fog/Mist FEW100 73 70 90% 29.79 1008.4
23 05:53 Calm 7.00 Mostly Cloudy BKN110 72 69.1 91% 29.81 1009.0
23 04:53 SE 5 8.00 Partly Cloudy SCT100 72 69.1 91% 29.82 1009.3
23 03:53 SE 5 10.00 Overcast OVC011 72 69.1 91% 29.83 1009.7
23 02:53 SE 5 8.00 A Few Clouds FEW095 71.1 69.1 94% 29.87 1011.0
23 01:53 Calm 10.00 Fair CLR 72 69.1 77 71.1 91% 29.89 1011.6 0.31
23 00:53 E 8 10.00 A Few Clouds FEW025 FEW090 FEW120 72 69.1 91% 29.9 1012.2 0.31
22 23:53 N 8 10.00 Overcast BKN070 OVC090 73.9 70 88% 29.94 1013.6
22 22:53 E 3 10.00 Fair CLR 73.9 70 88% 29.92 1012.6
22 21:53 Calm 10.00 Fair CLR 73.9 71.1 91% 29.93 1013.1
22 20:53 Calm 10.00 Fair CLR 75 72 90% 74 29.92 1012.8
22 19:53 Calm 10.00 Partly Cloudy SCT065 77 72 93 75.9 85% 78 29.92 1012.9 0.06 0.9
22 18:53 E 6 G 25 1.00 Heavy Rain BKN024 OVC060 81 69.1 67% 84 29.9 1012.0 0.84
22 17:53 NE 8 10.00 Mostly Cloudy BKN070 BKN095 84 71.1 65% 89 29.91 1012.4
22 16:53 N 9 10.00 A Few Clouds FEW070 FEW085 88 72 59% 95 29.89 1011.8
22 15:53 SW 12 10.00 Fair CLR 91 69.1 49% 96 29.89 1011.9
Date Time (edt) Wind (mph) Vis. (mi.) Weather Sky Cond. Air Dwpt Max. Min. Relative Humidity Wind Chill (°F) Heat Index (°F) altimeter (in) sea level (mb) 1 hr 3 hr 6 hr
6 hour
Temperature (ºF) Pressure Precipitation (in)